Time,TemperatureF,DewpointF,PressureIn,WindDirection,WindDirectionDegrees,WindSpeedMPH,WindSpeedGustMPH,Humidity,HourlyPrecipIn,Conditions,Clouds,dailyrainin,SoftwareType,DateUTC
2013-03-30 00:00:00,53.7,49.3,29.98,SW,222,4.0,5.0,85,0.00,,,0.00,WeatherCatV1.14B232,2013-03-30 07:00:00,
2013-03-30 00:05:00,54.1,49.7,29.97,WSW,248,2.0,9.0,85,0.00,,,0.00,WeatherCatV1.14B232,2013-03-30 07:05:00,
2013-03-30 00:10:00,55.5,50.4,29.98,SW,218,3.0,5.0,83,0.00,,,0.00,WeatherCatV1.14B232,2013-03-30 07:10:00,
2013-03-30 00:15:00,56.8,51.0,29.97,SW,226,3.0,3.0,81,0.00,,,0.00,WeatherCatV1.14B232,2013-03-30 07:15:00,
2013-03-30 00:20:00,54.0,50.2,29.99,SE,135,2.0,7.0,87,0.00,,,0.00,WeatherCatV1.14B232,2013-03-30 07:20:00,
2013-03-30 00:25:00,57.5,50.7,29.98,SW,214,1.0,5.0,78,0.00,,,0.00,WeatherCatV1.14B232,2013-03-30 07:25:00,
2013-03-30 00:30:00,56.3,49.9,29.97,SW,222,2.0,6.0,79,0.00,,,0.00,WeatherCatV1.14B232,2013-03-30 07:30:00,
2013-03-30 00:35:00,55.4,49.7,29.97,SW,227,3.0,7.0,81,0.00,,,0.00,WeatherCatV1.14B232,2013-03-30 07:35:00,
2013-03-30 00:40:00,55.1,50.0,29.96,SW,233,2.0,3.0,83,0.00,,,0.00,WeatherCatV1.14B232,2013-03-30 07:40:00,
2013-03-30 00:45:00,55.4,50.3,29.97,SW,230,2.0,4.0,83,0.00,,,0.00,WeatherCatV1.14B232,2013-03-30 07:45:00,
2013-03-30 00:50:00,55.3,50.5,29.97,NNE,25,1.0,2.0,84,0.00,,,0.00,WeatherCatV1.14B232,2013-03-30 07:50:00,
2013-03-30 00:55:00,54.2,50.4,29.98,NNW,338,2.0,9.0,87,0.00,,,0.00,WeatherCatV1.14B232,2013-03-30 07:55:00,
2013-03-30 01:00:00,54.2,50.4,29.98,NNW,338,2.0,9.0,87,0.00,,,0.00,WeatherCatV1.14B232,2013-03-30 08:00:00,
2013-03-30 01:05:00,54.2,50.4,29.98,NNW,338,2.0,9.0,87,0.00,,,0.00,WeatherCatV1.14B232,2013-03-30 08:05:00,
2013-03-30 01:10:00,53.7,49.9,29.98,NNW,338,3.0,9.0,87,0.00,,,0.00,WeatherCatV1.14B232,2013-03-30 08:10:00,
2013-03-30 01:15:00,53.7,49.9,29.98,NNW,338,3.0,9.0,87,0.00,,,0.00,WeatherCatV1.14B232,2013-03-30 08:15:00,
2013-03-30 01:20:00,53.7,49.9,29.98,NNW,338,3.0,9.0,87,0.00,,,0.00,WeatherCatV1.14B232,2013-03-30 08:20:00,
2013-03-30 01:25:00,52.8,49.9,29.98,NNW,338,4.0,17.0,90,0.00,,,0.00,WeatherCatV1.14B232,2013-03-30 08:25:00,
2013-03-30 01:30:00,52.8,49.9,29.98,NNW,338,4.0,17.0,90,0.00,,,0.00,WeatherCatV1.14B232,2013-03-30 08:30:00,
2013-03-30 01:35:00,52.8,49.9,29.98,NNW,338,4.0,17.0,90,0.00,,,0.00,WeatherCatV1.14B232,2013-03-30 08:35:00,
2013-03-30 01:40:00,52.1,49.5,29.98,NW,315,3.0,11.0,91,0.00,,,0.00,WeatherCatV1.14B232,2013-03-30 08:40:00,
2013-03-30 01:45:00,52.1,49.5,29.98,NW,315,3.0,11.0,91,0.00,,,0.00,WeatherCatV1.14B232,2013-03-30 08:45:00,
2013-03-30 01:50:00,52.1,49.5,29.98,NW,315,3.0,11.0,91,0.00,,,0.00,WeatherCatV1.14B232,2013-03-30 08:50:00,
2013-03-30 01:55:00,51.4,49.4,29.98,SW,225,2.0,7.0,93,0.00,,,0.00,WeatherCatV1.14B232,2013-03-30 08:55:00,
2013-03-30 02:00:00,51.4,49.4,29.98,SW,225,2.0,7.0,93,0.00,,,0.00,WeatherCatV1.14B232,2013-03-30 09:00:00,
2013-03-30 02:05:00,51.4,49.4,29.98,SW,225,2.0,7.0,93,0.00,,,0.00,WeatherCatV1.14B232,2013-03-30 09:05:00,
2013-03-30 02:10:00,51.6,49.9,29.97,ENE,68,1.0,7.0,94,0.00,,,0.00,WeatherCatV1.14B232,2013-03-30 09:10:00,
2013-03-30 02:15:00,51.6,49.9,29.97,ENE,68,1.0,7.0,94,0.00,,,0.00,WeatherCatV1.14B232,2013-03-30 09:15:00,
2013-03-30 02:20:00,51.6,49.9,29.97,ENE,68,1.0,7.0,94,0.00,,,0.00,WeatherCatV1.14B232,2013-03-30 09:20:00,
2013-03-30 02:25:00,51.4,49.7,29.99,SW,225,2.0,8.0,94,0.00,,,0.00,WeatherCatV1.14B232,2013-03-30 09:25:00,
2013-03-30 02:30:00,51.4,49.7,29.99,SW,225,2.0,8.0,94,0.00,,,0.00,WeatherCatV1.14B232,2013-03-30 09:30:00,
2013-03-30 02:35:00,51.4,49.7,29.99,SW,225,2.0,8.0,94,0.00,,,0.00,WeatherCatV1.14B232,2013-03-30 09:35:00,
2013-03-30 02:40:00,51.1,49.4,29.98,NNW,338,2.0,7.0,94,0.00,,,0.00,WeatherCatV1.14B232,2013-03-30 09:40:00,
2013-03-30 02:45:00,51.1,49.4,29.98,NNW,338,2.0,7.0,94,0.00,,,0.00,WeatherCatV1.14B232,2013-03-30 09:45:00,
2013-03-30 02:50:00,51.1,49.4,29.98,NNW,338,2.0,7.0,94,0.00,,,0.00,WeatherCatV1.14B232,2013-03-30 09:50:00,
2013-03-30 02:55:00,50.8,49.4,29.98,ENE,68,1.0,5.0,95,0.00,,,0.00,WeatherCatV1.14B232,2013-03-30 09:55:00,
2013-03-30 03:00:00,50.8,49.4,29.98,ENE,68,1.0,5.0,95,0.00,,,0.00,WeatherCatV1.14B232,2013-03-30 10:00:00,
2013-03-30 03:05:00,50.8,49.4,29.98,ENE,68,1.0,5.0,95,0.00,,,0.00,WeatherCatV1.14B232,2013-03-30 10:05:00,
2013-03-30 03:10:00,50.6,49.2,29.97,WSW,248,2.0,9.0,95,0.00,,,0.00,WeatherCatV1.14B232,2013-03-30 10:10:00,
2013-03-30 03:15:00,50.6,49.2,29.97,WSW,248,2.0,9.0,95,0.00,,,0.00,WeatherCatV1.14B232,2013-03-30 10:15:00,
2013-03-30 03:20:00,50.6,49.2,29.97,WSW,248,2.0,9.0,95,0.00,,,0.00,WeatherCatV1.14B232,2013-03-30 10:20:00,
2013-03-30 03:25:00,50.8,49.7,29.97,NNE,22,1.0,6.0,96,0.00,,,0.00,WeatherCatV1.14B232,2013-03-30 10:25:00,
2013-03-30 03:30:00,50.8,49.7,29.97,NNE,22,1.0,6.0,96,0.00,,,0.00,WeatherCatV1.14B232,2013-03-30 10:30:00,
2013-03-30 03:35:00,50.8,49.7,29.97,NNE,22,1.0,6.0,96,0.00,,,0.00,WeatherCatV1.14B232,2013-03-30 10:35:00,
2013-03-30 03:40:00,50.9,49.8,29.97,ESE,112,1.0,7.0,96,0.00,,,0.00,WeatherCatV1.14B232,2013-03-30 10:40:00,
2013-03-30 03:45:00,50.9,49.8,29.97,ESE,112,1.0,7.0,96,0.00,,,0.00,WeatherCatV1.14B232,2013-03-30 10:45:00,
2013-03-30 03:50:00,50.9,49.8,29.97,ESE,112,1.0,7.0,96,0.00,,,0.00,WeatherCatV1.14B232,2013-03-30 10:50:00,
2013-03-30 03:55:00,51.0,49.9,29.96,ENE,68,1.0,3.0,96,0.00,,,0.00,WeatherCatV1.14B232,2013-03-30 10:55:00,
2013-03-30 04:00:00,51.0,49.9,29.96,ENE,68,1.0,3.0,96,0.00,,,0.00,WeatherCatV1.14B232,2013-03-30 11:00:00,
2013-03-30 04:05:00,51.3,50.2,29.96,NE,45,0.0,3.0,96,0.00,,,0.00,WeatherCatV1.14B232,2013-03-30 11:05:00,
2013-03-30 04:10:00,51.3,50.2,29.96,NE,45,0.0,3.0,96,0.00,,,0.00,WeatherCatV1.14B232,2013-03-30 11:10:00,
2013-03-30 04:15:00,51.3,50.2,29.96,NE,45,0.0,3.0,96,0.00,,,0.00,WeatherCatV1.14B232,2013-03-30 11:15:00,
2013-03-30 04:20:00,51.3,49.9,29.95,NE,45,0.0,2.0,95,0.00,,,0.00,WeatherCatV1.14B232,2013-03-30 11:20:00,
2013-03-30 04:25:00,51.3,49.9,29.95,NE,45,0.0,2.0,95,0.00,,,0.00,WeatherCatV1.14B232,2013-03-30 11:25:00,
2013-03-30 04:30:00,51.3,49.9,29.95,NE,45,0.0,2.0,95,0.00,,,0.00,WeatherCatV1.14B232,2013-03-30 11:30:00,
2013-03-30 04:35:00,51.0,49.6,29.95,ENE,68,0.0,2.0,95,0.00,,,0.00,WeatherCatV1.14B232,2013-03-30 11:35:00,
2013-03-30 04:40:00,51.0,49.6,29.95,ENE,68,0.0,2.0,95,0.00,,,0.00,WeatherCatV1.14B232,2013-03-30 11:40:00,
2013-03-30 04:45:00,51.0,49.6,29.95,ENE,68,0.0,2.0,95,0.00,,,0.00,WeatherCatV1.14B232,2013-03-30 11:45:00,
2013-03-30 04:50:00,50.9,49.8,29.95,ENE,68,0.0,1.0,96,0.00,,,0.00,WeatherCatV1.14B232,2013-03-30 11:50:00,
2013-03-30 04:55:00,50.9,49.8,29.95,ENE,68,0.0,1.0,96,0.00,,,0.00,WeatherCatV1.14B232,2013-03-30 11:55:00,
2013-03-30 05:00:00,50.9,49.8,29.95,ENE,68,0.0,1.0,96,0.00,,,0.00,WeatherCatV1.14B232,2013-03-30 12:00:00,
2013-03-30 05:05:00,51.9,50.8,29.95,ENE,57,0.0,0.0,96,0.00,,,0.00,WeatherCatV1.14B232,2013-03-30 12:05:00,
2013-03-30 05:10:00,51.8,50.4,29.95,ENE,57,0.0,0.0,95,0.00,,,0.00,WeatherCatV1.14B232,2013-03-30 12:10:00,
2013-03-30 05:20:00,51.7,50.3,29.95,ENE,58,0.0,4.0,95,0.00,,,0.00,WeatherCatV1.14B232,2013-03-30 12:20:00,
2013-03-30 05:24:00,51.8,50.4,29.95,ENE,57,0.0,3.0,95,0.00,,,0.00,WeatherCatV1.14B232,2013-03-30 12:24:00,
2013-03-30 05:25:00,51.5,49.8,29.95,ENE,59,1.0,3.0,94,0.00,,,0.00,WeatherCatV1.14B232,2013-03-30 12:25:00,
2013-03-30 05:30:00,51.4,50.0,29.95,ENE,59,0.0,1.0,95,0.00,,,0.00,WeatherCatV1.14B232,2013-03-30 12:30:00,
2013-03-30 05:35:00,51.4,50.0,29.95,ENE,59,0.0,2.0,95,0.00,,,0.00,WeatherCatV1.14B232,2013-03-30 12:35:00,
2013-03-30 05:40:00,51.4,50.0,29.95,NE,48,0.0,3.0,95,0.00,,,0.00,WeatherCatV1.14B232,2013-03-30 12:40:00,
2013-03-30 05:45:00,51.5,50.1,29.95,North,0,1.0,3.0,95,0.00,,,0.00,WeatherCatV1.14B232,2013-03-30 12:45:00,
2013-03-30 05:50:00,51.4,50.0,29.95,NNE,13,1.0,4.0,95,0.00,,,0.00,WeatherCatV1.14B232,2013-03-30 12:50:00,
2013-03-30 05:55:00,51.0,49.3,29.95,East,83,1.0,3.0,94,0.00,,,0.00,WeatherCatV1.14B232,2013-03-30 12:55:00,
2013-03-30 06:00:00,50.6,49.2,29.95,SSW,194,2.0,5.0,95,0.00,,,0.00,WeatherCatV1.14B232,2013-03-30 13:00:00,
2013-03-30 06:10:00,50.5,49.1,29.95,SW,226,2.0,5.0,95,0.00,,,0.00,WeatherCatV1.14B232,2013-03-30 13:10:00,
2013-03-30 06:25:00,50.5,49.4,29.95,SSW,205,3.0,5.0,96,0.00,,,0.00,WeatherCatV1.14B232,2013-03-30 13:25:00,
2013-03-30 06:40:00,50.5,49.7,29.96,SW,222,5.0,6.0,97,0.00,,,0.00,WeatherCatV1.14B232,2013-03-30 13:40:00,
2013-03-30 06:55:00,50.6,49.8,29.96,SW,223,6.0,8.0,97,0.00,,,0.00,WeatherCatV1.14B232,2013-03-30 13:55:00,
2013-03-30 07:10:00,50.5,49.7,29.96,SSW,209,4.0,7.0,97,0.00,,,0.00,WeatherCatV1.14B232,2013-03-30 14:10:00,
2013-03-30 07:25:00,50.5,49.7,29.97,SSW,205,4.0,7.0,97,0.00,,,0.00,WeatherCatV1.14B232,2013-03-30 14:25:00,
2013-03-30 07:40:00,50.6,49.8,29.98,South,182,2.0,7.0,97,0.00,,,0.00,WeatherCatV1.14B232,2013-03-30 14:40:00,
2013-03-30 07:55:00,50.6,49.8,29.98,SW,233,2.0,7.0,97,0.00,,,0.00,WeatherCatV1.14B232,2013-03-30 14:55:00,
2013-03-30 08:10:00,50.6,50.1,29.99,ENE,59,3.0,3.0,98,0.00,,,0.00,WeatherCatV1.14B232,2013-03-30 15:10:00,
2013-03-30 08:25:00,50.7,50.2,29.99,SE,125,0.0,4.0,98,0.00,,,0.00,WeatherCatV1.14B232,2013-03-30 15:25:00,
2013-03-30 08:40:00,51.0,50.5,29.99,North,0,2.0,5.0,98,0.00,,,0.00,WeatherCatV1.14B232,2013-03-30 15:40:00,
2013-03-30 08:55:00,51.6,51.1,29.99,NW,313,6.0,7.0,98,0.00,,,0.00,WeatherCatV1.14B232,2013-03-30 15:55:00,
2013-03-30 09:10:00,51.8,51.3,29.98,NW,320,3.0,10.0,98,0.00,,,0.00,WeatherCatV1.14B232,2013-03-30 16:10:00,
2013-03-30 09:25:00,51.6,51.1,29.99,SE,142,0.0,9.0,98,0.00,,,0.00,WeatherCatV1.14B232,2013-03-30 16:25:00,
2013-03-30 09:40:00,52.1,51.6,30.00,ESE,110,4.0,6.0,98,0.00,,,0.00,WeatherCatV1.14B232,2013-03-30 16:40:00,
2013-03-30 09:55:00,52.0,51.5,29.99,NNW,339,7.0,7.0,98,0.00,,,0.00,WeatherCatV1.14B232,2013-03-30 16:55:00,
2013-03-30 10:10:00,52.1,51.6,29.99,East,101,0.0,8.0,98,0.00,,,0.00,WeatherCatV1.14B232,2013-03-30 17:10:00,
2013-03-30 10:25:00,52.4,51.8,29.99,South,191,1.0,11.0,98,0.00,,,0.00,WeatherCatV1.14B232,2013-03-30 17:25:00,
2013-03-30 10:40:00,53.1,52.5,29.99,SSW,213,1.0,6.0,98,0.00,,,0.00,WeatherCatV1.14B232,2013-03-30 17:40:00,
2013-03-30 10:55:00,52.8,51.7,30.00,SE,134,7.0,8.0,96,0.00,,,0.00,WeatherCatV1.14B232,2013-03-30 17:55:00,
2013-03-30 11:10:00,53.2,52.4,30.00,SW,227,1.0,3.0,97,0.00,,,0.00,WeatherCatV1.14B232,2013-03-30 18:10:00,
2013-03-30 11:25:00,53.0,51.9,30.00,NW,306,2.0,7.0,96,0.00,,,0.00,WeatherCatV1.14B232,2013-03-30 18:25:00,
2013-03-30 11:40:00,53.5,52.4,30.00,North,0,0.0,4.0,96,0.00,,,0.00,WeatherCatV1.14B232,2013-03-30 18:40:00,
2013-03-30 11:55:00,53.7,52.0,30.01,SW,234,5.0,6.0,94,0.00,,,0.00,WeatherCatV1.14B232,2013-03-30 18:55:00,
2013-03-30 12:10:00,53.3,51.6,30.00,SW,217,2.0,5.0,94,0.00,,,0.00,WeatherCatV1.14B232,2013-03-30 19:10:00,
2013-03-30 12:25:00,55.5,53.5,30.00,SW,220,1.0,5.0,93,0.00,,,0.00,WeatherCatV1.14B232,2013-03-30 19:25:00,
2013-03-30 12:40:00,55.5,52.6,30.00,WSW,247,2.0,6.0,90,0.00,,,0.00,WeatherCatV1.14B232,2013-03-30 19:40:00,
2013-03-30 12:55:00,56.7,53.5,30.00,SSW,205,1.0,1.0,89,0.00,,,0.00,WeatherCatV1.14B232,2013-03-30 19:55:00,
2013-03-30 13:10:00,59.1,54.6,29.99,SE,144,2.0,2.0,85,0.00,,,0.00,WeatherCatV1.14B232,2013-03-30 20:10:00,
2013-03-30 13:25:00,61.1,55.2,29.99,East,97,1.0,2.0,81,0.00,,,0.00,WeatherCatV1.14B232,2013-03-30 20:25:00,
2013-03-30 13:40:00,63.1,55.4,29.98,ESE,109,2.0,4.0,76,0.00,,,0.00,WeatherCatV1.14B232,2013-03-30 20:40:00,
2013-03-30 13:55:00,64.3,55.1,29.98,SE,138,0.0,4.0,72,0.00,,,0.00,WeatherCatV1.14B232,2013-03-30 20:55:00,
2013-03-30 14:10:00,64.0,52.8,29.97,SSW,196,1.0,10.0,67,0.00,,,0.00,WeatherCatV1.14B232,2013-03-30 21:10:00,
2013-03-30 14:25:00,61.1,53.5,29.96,SSW,192,1.0,5.0,76,0.00,,,0.00,WeatherCatV1.14B232,2013-03-30 21:25:00,
2013-03-30 14:40:00,61.6,53.6,29.97,West,273,4.0,6.0,75,0.00,,,0.00,WeatherCatV1.14B232,2013-03-30 21:40:00,
2013-03-30 14:55:00,59.3,51.0,29.96,NW,314,1.0,11.0,74,0.00,,,0.00,WeatherCatV1.14B232,2013-03-30 21:55:00,
2013-03-30 15:10:00,58.4,51.6,29.96,ESE,123,2.0,13.0,78,0.00,,,0.00,WeatherCatV1.14B232,2013-03-30 22:10:00,
2013-03-30 15:25:00,57.9,51.8,29.95,ENE,74,3.0,13.0,80,0.00,,,0.00,WeatherCatV1.14B232,2013-03-30 22:25:00,
2013-03-30 15:40:00,57.2,51.4,29.95,WNW,299,3.0,23.0,81,0.00,,,0.00,WeatherCatV1.14B232,2013-03-30 22:40:00,
2013-03-30 15:55:00,57.6,51.1,29.94,SSE,158,2.0,11.0,79,0.00,,,0.00,WeatherCatV1.14B232,2013-03-30 22:55:00,
2013-03-30 16:10:00,58.9,51.7,29.93,South,177,4.0,13.0,77,0.00,,,0.00,WeatherCatV1.14B232,2013-03-30 23:10:00,
2013-03-30 16:25:00,57.9,51.1,29.93,South,188,0.0,6.0,78,0.00,,,0.00,WeatherCatV1.14B232,2013-03-30 23:25:00,
2013-03-30 16:40:00,57.7,50.5,29.93,SSW,213,3.0,3.0,77,0.00,,,0.00,WeatherCatV1.14B232,2013-03-30 23:40:00,
2013-03-30 16:55:00,58.2,50.0,29.92,SW,225,3.0,4.0,74,0.00,,,0.00,WeatherCatV1.14B232,2013-03-30 23:55:00,
2013-03-30 17:10:00,58.3,50.4,29.93,NNE,19,4.0,18.0,75,0.00,,,0.00,WeatherCatV1.14B232,2013-03-31 00:10:00,
2013-03-30 17:25:00,57.8,51.0,29.93,NNW,329,5.0,9.0,78,0.00,,,0.00,WeatherCatV1.14B232,2013-03-31 00:25:00,
2013-03-30 17:40:00,55.8,50.7,29.92,SE,131,5.0,13.0,83,0.00,,,0.00,WeatherCatV1.14B232,2013-03-31 00:40:00,
2013-03-30 17:55:00,54.6,50.8,29.91,East,94,4.0,15.0,87,0.00,,,0.00,WeatherCatV1.14B232,2013-03-31 00:55:00,
2013-03-30 18:10:00,54.4,50.9,29.94,ESE,111,4.0,5.0,88,0.00,,,0.00,WeatherCatV1.14B232,2013-03-31 01:10:00,
2013-03-30 18:25:00,54.4,51.5,29.91,SW,223,1.0,4.0,90,0.00,,,0.01,WeatherCatV1.14B232,2013-03-31 01:25:00,
2013-03-30 18:40:00,54.3,51.7,29.93,North,349,0.0,7.0,91,0.04,,,0.02,WeatherCatV1.14B232,2013-03-31 01:40:00,
2013-03-30 18:55:00,54.2,51.6,29.94,NNW,346,5.0,5.0,91,0.00,,,0.02,WeatherCatV1.14B232,2013-03-31 01:55:00,
2013-03-30 19:00:00,54.1,51.8,29.93,WNW,292,3.0,13.0,92,0.00,,,0.00,WeatherCatV1.14B232,2013-03-31 02:00:00,
2013-03-30 19:05:00,54.0,51.7,29.93,West,267,4.0,6.0,92,0.00,,,0.00,WeatherCatV1.14B232,2013-03-31 02:05:00,
2013-03-30 19:10:00,53.9,51.6,29.93,SW,216,5.0,8.0,92,0.00,,,0.00,WeatherCatV1.14B232,2013-03-31 02:10:00,
2013-03-30 19:15:00,54.0,52.0,29.93,South,187,5.0,7.0,93,0.00,,,0.00,WeatherCatV1.14B232,2013-03-31 02:15:00,
2013-03-30 19:20:00,54.1,52.1,29.93,SSW,204,5.0,10.0,93,0.00,,,0.00,WeatherCatV1.14B232,2013-03-31 02:20:00,
2013-03-30 19:25:00,54.1,51.8,29.93,SW,220,5.0,7.0,92,0.00,,,0.00,WeatherCatV1.14B232,2013-03-31 02:25:00,
2013-03-30 19:30:00,54.1,52.1,29.93,SW,227,5.0,5.0,93,0.00,,,0.00,WeatherCatV1.14B232,2013-03-31 02:30:00,
2013-03-30 19:41:00,54.2,52.2,29.94,SSW,198,5.0,7.0,93,0.00,,,0.00,WeatherCatV1.14B232,2013-03-31 02:41:00,
2013-03-30 19:56:00,54.0,52.0,29.95,NNW,336,5.0,12.0,93,0.00,,,0.03,WeatherCatV1.14B232,2013-03-31 02:56:00,
2013-03-30 20:11:00,54.3,52.6,29.95,East,87,6.0,13.0,94,0.00,,,0.04,WeatherCatV1.14B232,2013-03-31 03:11:00,
2013-03-30 20:26:00,54.3,52.6,29.94,SSW,196,2.0,3.0,94,0.00,,,0.04,WeatherCatV1.14B232,2013-03-31 03:26:00,
2013-03-30 20:41:00,55.1,53.7,29.93,SE,139,0.0,1.0,95,0.00,,,0.04,WeatherCatV1.14B232,2013-03-31 03:41:00,
2013-03-30 20:56:00,54.9,52.9,29.95,NNW,344,0.0,2.0,93,0.00,,,0.04,WeatherCatV1.14B232,2013-03-31 03:56:00,
2013-03-30 21:11:00,54.3,52.6,29.96,NE,37,4.0,8.0,94,0.00,,,0.05,WeatherCatV1.14B232,2013-03-31 04:11:00,
2013-03-30 21:26:00,54.1,52.7,29.95,West,265,2.0,9.0,95,0.00,,,0.06,WeatherCatV1.14B232,2013-03-31 04:26:00,
2013-03-30 21:41:00,54.0,52.6,29.96,NNW,338,5.0,5.0,95,0.00,,,0.07,WeatherCatV1.14B232,2013-03-31 04:41:00,
2013-03-30 21:56:00,53.7,52.6,29.94,NNW,343,7.0,9.0,96,0.00,,,0.07,WeatherCatV1.14B232,2013-03-31 04:56:00,
2013-03-30 22:11:00,53.7,52.6,29.94,NNW,328,2.0,3.0,96,0.00,,,0.07,WeatherCatV1.14B232,2013-03-31 05:11:00,
2013-03-30 22:26:00,53.7,52.9,29.96,ESE,105,1.0,8.0,97,0.00,,,0.08,WeatherCatV1.14B232,2013-03-31 05:26:00,
2013-03-30 22:41:00,53.8,53.0,29.95,South,179,0.0,1.0,97,0.00,,,0.08,WeatherCatV1.14B232,2013-03-31 05:41:00,
2013-03-30 22:56:00,54.0,53.2,29.95,ESE,109,7.0,14.0,97,0.00,,,0.09,WeatherCatV1.14B232,2013-03-31 05:56:00,
2013-03-30 23:11:00,53.9,53.1,29.95,SSE,164,0.0,11.0,97,0.05,,,0.10,WeatherCatV1.14B232,2013-03-31 06:11:00,
2013-03-30 23:26:00,54.0,53.2,29.95,South,170,4.0,12.0,97,0.05,,,0.11,WeatherCatV1.14B232,2013-03-31 06:26:00,
2013-03-30 23:40:00,54.0,52.6,29.96,North,11,2.0,5.0,95,0.00,,,0.00,WeatherCatV1.14B232,2013-03-31 06:40:00,
2013-03-30 23:41:00,53.9,53.1,29.94,SE,129,7.0,12.0,97,0.00,,,0.12,WeatherCatV1.14B232,2013-03-31 06:41:00,
2013-03-30 23:45:00,53.9,52.5,29.95,North,355,3.0,4.0,95,0.00,,,0.00,WeatherCatV1.14B232,2013-03-31 06:45:00,
2013-03-30 23:50:00,53.7,52.3,29.95,North,351,4.0,7.0,95,0.00,,,0.00,WeatherCatV1.14B232,2013-03-31 06:50:00,
2013-03-30 23:55:00,53.7,52.6,29.94,NNE,24,3.0,6.0,96,0.00,,,0.00,WeatherCatV1.14B232,2013-03-31 06:55:00,